Wilmington, DE

5:29 AM EDT on July 21, 2017 (GMT -0400)
New Castle County

Weather History for KILG - June, 2014

Change the Weather History Date:

Sunday, June 8, 2014

  Actual Average Record
Temperature  
Mean Temperature 72 °F 70 °F  
Max Temperature 83 °F 80 °F 98 °F (1914)
Min Temperature 60 °F 61 °F 41 °F (1932)
Degree Days  
Heating Degree Days 0 1  
Month to date heating degree days 2 10  
Since 1 June heating degree days 2 10  
Since 1 July heating degree days 5127 4814  
Cooling Degree Days 7 6  
Month to date cooling degree days 43 42  
Year to date cooling degree days 110 121  
Since 1 June cooling degree days 43 42  
Growing Degree Days 22 (Base 50)    
Moisture  
Dew Point 60 °F    
Average Humidity 68    
Maximum Humidity 93    
Minimum Humidity 43    
Precipitation  
Precipitation 0.00 in 0.13 in 2.56 in (1955)
Month to date precipitation 0.60 1.04  
Year to date precipitation 22.93 18.10  
Snow  
Snow 0.00 in 0.00 in 0.00 in (1894)
Month to date snowfall 0.0 0.0  
Since 1 June snowfall 0.0 0.0  
Since 1 July snowfall 56.1 20.2  
Snow Depth 0.00 in    
Sea Level Pressure  
Sea Level Pressure 29.94 in    
Wind  
Wind Speed 8 mph (South)    
Max Wind Speed 18 mph    
Max Gust Speed 23 mph    
Visibility 10 miles    
Events      
T = Trace of Precipitation, MM = Missing Value Source: NWS Daily Summary

Daily Weather History Graph

Daily Weather History Graph

Search for Another Location

Airport or City:

Trip Planner

Search our weather history database for the weather conditions in past years. The results will help you decide how hot, cold, wet, or windy it might be!

Date:

Astronomy

Jun. 08, 2014 Rise Set
Actual Time 5:34 AM EDT 8:28 PM EDT
Civil Twilight 5:02 AM EDT 9:01 PM EDT
Nautical Twilight 4:21 AM EDT 9:41 PM EDT
Astronomical Twilight 3:34 AM EDT 10:29 PM EDT
Moon 3:45 PM EDT (6/8) 2:25 AM EDT (6/8)
Length of Visible Light 15h 58m
Length of Day
14h 54m
Waxing Gibbous, 77% of the Moon is Illuminated
Jun 8
Waxing Gibbous
Jun 13
Full
Jun 19
Last Quarter
Jun 27
New
Jul 5
First Quarter

Hourly Weather History & Observations

Time (EDT) Temp. Heat Index Dew Point Humidity Pressure Visibility Wind Dir Wind Speed Gust Speed Precip Events Conditions
12:51 AM 68.0 °F - 64.9 °F 90% 29.97 in 10.0 mi SSE 8.1 mph - N/A   Clear
1:51 AM 66.0 °F - 63.0 °F 90% 29.97 in 10.0 mi Calm Calm - N/A   Clear
2:51 AM 64.0 °F - 62.1 °F 93% 29.97 in 10.0 mi NW 3.5 mph - N/A   Clear
3:51 AM 64.0 °F - 61.0 °F 90% 29.96 in 10.0 mi Calm Calm - N/A   Clear
4:51 AM 62.1 °F - 60.1 °F 93% 29.96 in 10.0 mi Calm Calm - N/A   Clear
5:51 AM 62.1 °F - 59.0 °F 90% 29.96 in 9.0 mi Calm Calm - N/A   Clear
6:51 AM 63.0 °F - 61.0 °F 93% 29.98 in 10.0 mi NNW 3.5 mph - N/A   Scattered Clouds
7:51 AM 68.0 °F - 62.1 °F 81% 29.98 in 10.0 mi Calm Calm - N/A   Partly Cloudy
8:51 AM 73.0 °F - 60.1 °F 64% 29.99 in 10.0 mi WSW 3.5 mph - N/A   Clear
9:51 AM 75.9 °F - 61.0 °F 60% 29.99 in 10.0 mi SW 5.8 mph - N/A   Clear
10:51 AM 80.1 °F 80.9 °F 60.1 °F 50% 29.97 in 10.0 mi Variable 5.8 mph - N/A   Clear
11:51 AM 80.1 °F 80.7 °F 59.0 °F 48% 29.97 in 10.0 mi Variable 5.8 mph - N/A   Clear
12:51 PM 81.0 °F 81.0 °F 57.0 °F 44% 29.95 in 10.0 mi SSE 9.2 mph - N/A   Clear
1:51 PM 82.0 °F 81.7 °F 57.0 °F 42% 29.94 in 10.0 mi SSE 12.7 mph 17.3 mph N/A   Clear
2:51 PM 81.0 °F 81.0 °F 57.0 °F 44% 29.92 in 10.0 mi SSE 12.7 mph - N/A   Clear
3:51 PM 82.0 °F 82.0 °F 57.9 °F 44% 29.91 in 10.0 mi SSE 15.0 mph - N/A   Clear
4:51 PM 78.1 °F - 57.0 °F 48% 29.89 in 10.0 mi South 13.8 mph - N/A   Clear
5:51 PM 75.9 °F - 59.0 °F 56% 29.88 in 10.0 mi South 16.1 mph - N/A   Clear
6:51 PM 75.9 °F - 55.9 °F 50% 29.88 in 10.0 mi SSE 15.0 mph - N/A   Clear
7:51 PM 73.9 °F - 57.0 °F 55% 29.89 in 10.0 mi SSE 11.5 mph - N/A   Clear
8:51 PM 72.0 °F - 59.0 °F 64% 29.88 in 10.0 mi SE 11.5 mph - N/A   Clear
9:51 PM 71.1 °F - 62.1 °F 73% 29.90 in 10.0 mi SSE 10.4 mph - N/A   Partly Cloudy
10:51 PM 72.0 °F - 63.0 °F 73% 29.90 in 10.0 mi SSE 15.0 mph - N/A   Mostly Cloudy